EW5549 Weather Reports


Display with metric or nautical units.
time (UTC)temp
F
wind
direction
speed
MPH
gust
MPH
rain 1hr
in
rain 24hr
in
rain mn
in
humidity
%
barometer
mb
20260502213954 70 26 2.0 3.0 0.00 0.00 0.00 34 1017.9
20260502213451 70 333 2.0 2.0 0.00 0.00 0.00 32 1017.9
20260502212949 69 341 4.0 5.0 0.00 0.00 0.00 33 1018.0
20260502212448 69 57 4.0 6.0 0.00 0.00 0.00 37 1018.0
20260502211944 69 303 5.0 5.0 0.00 0.00 0.00 36 1018.2
20260502211440 68 32 4.0 6.0 0.00 0.00 0.00 33 1018.2
20260502210938 68 317 4.0 6.0 0.00 0.00 0.00 34 1018.2
20260502210434 67 334 4.0 5.0 0.00 0.00 0.00 35 1018.3
20260502205932 67 332 5.0 6.0 0.00 0.00 0.00 35 1018.2
20260502205428 66 329 3.0 3.0 0.00 0.00 0.00 35 1018.4
20260502204925 65 294 4.0 5.0 0.00 0.00 0.00 37 1018.6
20260502204422 65 275 4.0 5.0 0.00 0.00 0.00 37 1018.7
20260502203920 65 317 5.0 6.0 0.00 0.00 0.00 37 1018.5
20260502203417 65 21 4.0 5.0 0.00 0.00 0.00 37 1018.5
20260502202913 65 335 5.0 6.0 0.00 0.00 0.00 36 1018.5
20260502202410 65 270 5.0 6.0 0.00 0.00 0.00 38 1018.7
20260502201908 65 346 5.0 6.0 0.00 0.00 0.00 37 1018.7
20260502201403 65 5 5.0 6.0 0.00 0.00 0.00 40 1018.7
20260502200901 64 317 6.0 6.0 0.00 0.00 0.00 37 1018.8
20260502200356 64 295 8.0 8.0 0.00 0.00 0.00 35 1018.9
20260502195854 65 308 8.0 8.0 0.00 0.00 0.00 34 1018.8
20260502195350 64 279 7.0 8.0 0.00 0.00 0.00 35 1018.9
20260502194847 65 318 7.0 8.0 0.00 0.00 0.00 36 1018.8
20260502194344 65 343 5.0 6.0 0.00 0.00 0.00 37 1019.1
20260502193840 66 338 3.0 5.0 0.00 0.00 0.00 37 1019.2
20260502193337 66 337 4.0 6.0 0.00 0.00 0.00 36 1019.2
20260502192833 66 346 4.0 5.0 0.00 0.00 0.00 37 1019.2
20260502192330 67 339 5.0 7.0 0.00 0.00 0.00 37 1019.3
20260502191827 67 282 6.0 8.0 0.00 0.00 0.00 38 1019.4
20260502191325 66 16 3.0 5.0 0.00 0.00 0.00 38 1019.4
20260502190822 65 245 6.0 6.0 0.00 0.00 0.00 37 1019.5
20260502190319 65 33 3.0 3.0 0.00 0.00 0.00 39 1019.5
20260502185815 65 1 3.0 3.0 0.00 0.00 0.00 38 1019.6
20260502185311 65 357 5.0 6.0 0.00 0.00 0.00 38 1019.6
20260502184808 64 344 2.0 3.0 0.00 0.00 0.00 40 1019.6
20260502184303 65 327 4.0 6.0 0.00 0.00 0.00 40 1019.9
20260502183800 65 18 3.0 5.0 0.00 0.00 0.00 39 1019.8
20260502183256 64 265 6.0 7.0 0.00 0.00 0.00 37 1019.9
20260502182751 64 345 3.0 6.0 0.00 0.00 0.00 39 1019.9
20260502182247 64 338 4.0 6.0 0.00 0.00 0.00 39 1019.8
20260502181743 64 323 5.0 7.0 0.00 0.00 0.00 40 1020.2
20260502181238 62 330 4.0 6.0 0.00 0.00 0.00 41 1020.1
20260502180734 63 262 3.0 3.0 0.00 0.00 0.00 40 1020.3
20260502180232 63 326 5.0 7.0 0.00 0.00 0.00 42 1020.5
20260502170156 60 304 4.0 6.0 0.00 0.00 0.00 46 1020.9
20260502164142 59 22 2.0 5.0 0.00 0.00 0.00 47 1021.1
20260502163638 58 39 1.0 2.0 0.00 0.00 0.00 50 1021.1
20260502163135 58 310 3.0 5.0 0.00 0.00 0.00 50 1021.1
20260502162632 57 354 2.0 2.0 0.00 0.00 0.00 51 1021.2
20260502162129 57 314 4.0 8.0 0.00 0.00 0.00 50 1020.8
20260502161626 57 0 3.0 3.0 0.00 0.00 0.00 50 1021.1
20260502161123 56 355 7.0 9.0 0.00 0.00 0.00 51 1021.1
20260502160621 56 284 7.0 8.0 0.00 0.00 0.00 52 1021.3
20260502160120 56 2 1.0 2.0 0.00 0.00 0.00 49 1021.2
20260502152034 54 279 3.0 5.0 0.00 0.00 0.00 50 1021.7
20260502151531 54 187 0.0 0.0 0.00 0.00 0.00 51 1021.8
20260502151028 53 217 2.0 2.0 0.00 0.00 0.00 53 1021.5
20260502150526 52 157 3.0 3.0 0.00 0.00 0.00 55 1021.8
20260502130410 35 23 1.0 2.0 0.00 0.00 0.00 82 1021.1
20260502123353 33 100 1.0 2.0 0.00 0.00 0.00 85 1020.6
20260502122850 33 15 0.0 0.0 0.00 0.00 0.00 84 1020.7
20260502122346 33 15 0.0 0.0 0.00 0.00 0.00 85 1020.5
20260502121845 33 15 0.0 0.0 0.00 0.00 0.00 86 1020.6
20260502121342 33 15 0.0 0.0 0.00 0.00 0.00 87 1020.7
20260502120839 32 15 0.0 0.0 0.00 0.00 0.00 86 1020.5
20260502120335 32 15 0.0 0.0 0.00 0.00 0.00 87 1020.5
20260502115832 32 15 0.0 0.0 0.00 0.00 0.00 86 1020.4
20260502115330 33 15 0.0 0.0 0.00 0.00 0.00 85 1020.5
20260502114826 33 15 0.0 0.0 0.00 0.00 0.00 85 1020.5
20260502114323 33 15 0.0 0.0 0.00 0.00 0.00 84 1020.2
20260502113820 33 15 0.0 0.0 0.00 0.00 0.00 83 1020.4
20260502113317 34 15 0.0 0.0 0.00 0.00 0.00 82 1020.3
20260502112816 35 15 1.0 1.0 0.00 0.00 0.00 80 1020.4
20260502112313 34 15 0.0 0.0 0.00 0.00 0.00 82 1020.4
20260502111810 35 15 0.0 0.0 0.00 0.00 0.00 81 1020.2
20260502111307 35 77 0.0 0.0 0.00 0.00 0.00 79 1020.2
20260502110805 35 77 0.0 0.0 0.00 0.00 0.00 79 1020.1
20260502110303 36 77 0.0 0.0 0.00 0.00 0.00 78 1020.3
20260502105800 36 110 0.0 0.0 0.00 0.00 0.00 77 1020.2
20260502105256 36 111 2.0 2.0 0.00 0.00 0.00 77 1019.9
20260502104754 35 85 1.0 1.0 0.00 0.00 0.00 80 1020.2
20260502104251 35 59 0.0 0.0 0.00 0.00 0.00 83 1020.2
20260502103749 35 59 0.0 0.0 0.00 0.00 0.00 84 1020.2
20260502103246 35 53 0.0 0.0 0.00 0.00 0.00 83 1019.9
20260502102743 35 53 0.0 0.0 0.00 0.00 0.00 83 1020.1
20260502102239 35 55 0.0 0.0 0.00 0.00 0.00 83 1019.9
20260502101738 35 76 0.0 0.0 0.00 0.00 0.00 82 1019.9
20260502101236 36 76 0.0 1.0 0.00 0.00 0.00 81 1019.9
20260502100733 35 88 1.0 1.0 0.00 0.00 0.00 83 1019.8
20260502100232 35 89 2.0 2.0 0.00 0.00 0.00 81 1019.7
20260502091206 38 101 0.0 0.0 0.00 0.00 0.00 77 1019.7
20260502090703 37 101 0.0 0.0 0.00 0.00 0.00 78 1019.6
20260502090159 38 101 0.0 0.0 0.00 0.00 0.00 77 1019.5
20260502071055 43 77 0.0 0.0 0.00 0.00 0.00 67 1019.4
20260502070554 41 77 0.0 0.0 0.00 0.00 0.00 72 1019.2
20260502070051 41 53 0.0 0.0 0.00 0.00 0.00 72 1019.2
20260502065549 41 53 0.0 0.0 0.00 0.00 0.00 72 1019.2
20260502065047 41 54 0.0 0.0 0.00 0.00 0.00 71 1019.1
20260502064545 41 54 0.0 0.0 0.00 0.00 0.00 71 1018.9
20260502064042 41 54 0.0 0.0 0.00 0.00 0.00 71 1018.9
20260502063540 42 54 0.0 0.0 0.00 0.00 0.00 70 1019.1
20260502063037 42 58 0.0 0.0 0.00 0.00 0.00 71 1018.9
20260502062534 42 58 0.0 0.0 0.00 0.00 0.00 70 1018.8
20260502062032 43 58 0.0 0.0 0.00 0.00 0.00 70 1018.9
20260502061530 43 57 0.0 0.0 0.00 0.00 0.00 69 1018.7
20260502061027 44 107 0.0 0.0 0.00 0.00 0.00 69 1018.8
20260502060522 44 107 0.0 0.0 0.00 0.00 0.00 68 1018.9
20260502060019 44 108 1.0 2.0 0.00 0.00 0.00 68 1018.7
20260502055516 44 87 1.0 1.0 0.00 0.00 0.00 67 1018.8
20260502055015 46 73 0.0 0.0 0.00 0.00 0.00 63 1018.7
20260502054513 46 56 0.0 0.0 0.00 0.00 0.00 61 1018.7
20260502054010 46 55 0.0 0.0 0.00 0.00 0.00 62 1018.8
20260502053507 46 68 0.0 0.0 0.00 0.00 0.00 66 1018.7
20260502053005 46 39 0.0 0.0 0.00 0.00 0.00 64 1018.7
20260502052503 46 97 0.0 0.0 0.00 0.00 0.00 62 1018.7
20260502052001 46 97 0.0 0.0 0.00 0.00 0.00 61 1018.5
20260502051459 46 97 0.0 0.0 0.00 0.00 0.00 60 1018.5
20260502050955 46 97 0.0 0.0 0.00 0.00 0.00 61 1018.5
20260502050452 46 97 0.0 0.0 0.00 0.00 0.00 64 1018.6
20260502045949 47 131 0.0 0.0 0.00 0.00 0.00 62 1018.6
20260502045446 46 131 1.0 1.0 0.00 0.00 0.00 62 1018.8
20260502044943 46 131 2.0 2.0 0.00 0.00 0.00 64 1018.5
20260502044438 46 104 0.0 0.0 0.00 0.00 0.00 66 1018.8
20260502043936 46 104 0.0 0.0 0.00 0.00 0.00 65 1018.5
20260502043434 46 104 0.0 0.0 0.00 0.00 0.00 64 1018.4
20260502042933 47 242 0.0 0.0 0.00 0.00 0.00 63 1018.6
20260502042430 47 169 0.0 0.0 0.00 0.00 0.00 61 1018.4
20260502041927 48 144 0.0 0.0 0.00 0.00 0.00 59 1018.4
20260502041425 49 144 0.0 0.0 0.00 0.00 0.00 57 1018.4
20260502040922 50 143 0.0 0.0 0.00 0.00 0.00 56 1018.5
20260502040419 50 144 0.0 0.0 0.00 0.00 0.00 57 1018.4
20260502035915 50 144 0.0 0.0 0.00 0.00 0.00 57 1018.4
20260502035411 50 143 0.0 0.0 0.00 0.00 0.00 56 1018.3
20260502034909 51 94 0.0 0.0 0.00 0.00 0.00 54 1018.3
20260502034408 52 250 2.0 2.0 0.00 0.00 0.00 55 1018.2
20260502033906 54 67 2.0 2.0 0.00 0.00 0.00 52 1018.0
20260502033403 54 77 3.0 5.0 0.00 0.00 0.00 51 1017.8
20260502032859 55 85 2.0 2.0 0.00 0.00 0.00 49 1017.8
20260502032355 56 94 3.0 3.0 0.00 0.00 0.00 49 1017.9
20260502031853 56 87 3.0 5.0 0.00 0.00 0.00 46 1017.7
20260502031351 57 69 0.0 0.0 0.00 0.00 0.00 46 1017.8
20260502030849 58 105 2.0 2.0 0.00 0.00 0.00 45 1017.7
20260502030347 58 105 2.0 2.0 0.00 0.00 0.00 44 1017.6
20260502025844 58 111 3.0 3.0 0.00 0.00 0.00 43 1017.4
20260502025342 58 81 2.0 2.0 0.00 0.00 0.00 44 1017.5
20260502024840 58 41 1.0 1.0 0.00 0.00 0.00 44 1017.5
20260502024337 61 51 2.0 2.0 0.00 0.00 0.00 39 1017.5
20260502023835 62 116 2.0 2.0 0.00 0.00 0.00 37 1017.4
20260502023332 62 119 2.0 2.0 0.00 0.00 0.00 37 1017.2
20260502022830 63 120 3.0 3.0 0.00 0.00 0.00 37 1016.9
20260502022326 64 119 3.0 3.0 0.00 0.00 0.00 36 1017.3
20260502021823 64 126 4.0 5.0 0.00 0.00 0.00 36 1017.4
20260502021320 64 102 5.0 6.0 0.00 0.00 0.00 35 1017.3
20260502020818 65 100 4.0 5.0 0.00 0.00 0.00 35 1017.0
20260502020315 66 120 6.0 9.0 0.00 0.00 0.00 34 1017.0
20260502015812 66 127 7.0 7.0 0.00 0.00 0.00 33 1017.0
20260502015308 67 117 7.0 8.0 0.00 0.00 0.00 33 1017.2
20260502014806 67 109 7.0 8.0 0.00 0.00 0.00 33 1016.9
20260502014303 67 117 5.0 7.0 0.00 0.00 0.00 33 1016.9
20260502013759 68 119 6.0 7.0 0.00 0.00 0.00 33 1017.3
20260502013255 68 125 9.0 10.0 0.00 0.00 0.00 31 1017.2
20260502012752 68 119 7.0 8.0 0.00 0.00 0.00 32 1017.3
20260502012249 68 133 7.0 7.0 0.00 0.00 0.00 30 1017.0
20260502011747 68 108 7.0 8.0 0.00 0.00 0.00 30 1017.3
20260502011242 69 114 5.0 7.0 0.00 0.00 0.00 31 1017.4
20260502010740 69 114 7.0 8.0 0.00 0.00 0.00 29 1017.2
20260502010235 69 108 5.0 6.0 0.00 0.00 0.00 29 1017.4
20260502005733 70 120 5.0 7.0 0.00 0.00 0.00 28 1017.3
20260502005231 70 117 8.0 9.0 0.00 0.00 0.00 26 1017.2
20260502004728 70 111 7.0 9.0 0.00 0.00 0.00 26 1017.3
20260502004224 70 123 9.0 10.0 0.00 0.00 0.00 26 1017.4
20260502003722 70 124 7.0 8.0 0.00 0.00 0.00 25 1017.5
20260502003219 70 117 5.0 6.0 0.00 0.00 0.00 26 1017.5
20260502002715 70 124 7.0 7.0 0.00 0.00 0.00 26 1017.6
20260502002213 70 111 9.0 10.0 0.00 0.00 0.00 27 1017.5
20260502001709 71 109 7.0 9.0 0.00 0.00 0.00 26 1017.3
20260502001208 71 125 6.0 6.0 0.00 0.00 0.00 26 1017.4
20260502000705 71 128 5.0 6.0 0.00 0.00 0.00 25 1017.5
20260502000204 70 107 7.0 8.0 0.00 0.00 0.00 24 1017.6
20260501235658 71 116 9.0 9.0 0.00 0.00 0.00 23 1017.5
20260501235154 71 101 6.0 7.0 0.00 0.00 0.00 26 1017.6
20260501234650 71 83 6.0 7.0 0.00 0.00 0.00 25 1017.7
20260501234148 71 106 7.0 7.0 0.00 0.00 0.00 25 1017.6
20260501233646 71 99 9.0 10.0 0.00 0.00 0.00 26 1017.6
20260501233142 71 140 4.0 5.0 0.00 0.00 0.00 25 1017.7
20260501232638 71 101 5.0 7.0 0.00 0.00 0.00 27 1017.7
20260501232136 71 68 5.0 6.0 0.00 0.00 0.00 27 1017.8
20260501231633 71 84 8.0 9.0 0.00 0.00 0.00 26 1017.9
20260501231132 71 88 7.0 9.0 0.00 0.00 0.00 31 1017.8
20260501230630 71 84 5.0 5.0 0.00 0.00 0.00 24 1017.9
20260501230128 71 71 5.0 6.0 0.00 0.00 0.00 27 1017.8
20260501225625 71 87 6.0 7.0 0.00 0.00 0.00 28 1017.9
20260501225121 71 100 9.0 10.0 0.00 0.00 0.00 27 1018.0
20260501224618 70 75 2.0 3.0 0.00 0.00 0.00 27 1018.2
20260501224115 70 115 5.0 6.0 0.00 0.00 0.00 26 1018.2
20260501223612 70 115 7.0 8.0 0.00 0.00 0.00 25 1018.2
20260501223108 70 76 5.0 7.0 0.00 0.00 0.00 27 1018.3
20260501222604 70 92 4.0 6.0 0.00 0.00 0.00 23 1018.3
20260501222101 70 87 8.0 9.0 0.00 0.00 0.00 25 1018.5
20260501221558 70 90 7.0 8.0 0.00 0.00 0.00 28 1018.5
20260501221055 70 93 10.0 10.0 0.00 0.00 0.00 27 1018.5
20260501220553 70 97 8.0 9.0 0.00 0.00 0.00 26 1018.4
20260501220050 70 89 6.0 7.0 0.00 0.00 0.00 28 1018.9
20260501215546 69 99 4.0 5.0 0.00 0.00 0.00 26 1018.7
20260501215041 70 119 9.0 10.0 0.00 0.00 0.00 27 1018.7
20260501214537 69 121 5.0 6.0 0.00 0.00 0.00 27 1018.8